Weather History for KCVN - April, 2013

Change the Weather History Date:

Wednesday, April 10, 2013

  Actual Average Record
Temperature  
Mean Temperature 34 °F -  
Max Temperature 46 °F 70 °F 90 °F (1972)
Min Temperature 21 °F 38 °F 19 °F (1973)
Degree Days  
Heating Degree Days 32    
Moisture  
Dew Point 9 °F    
Average Humidity 36    
Maximum Humidity 47    
Minimum Humidity 27    
Precipitation  
Precipitation 0.00 in - - ()
Sea Level Pressure  
Sea Level Pressure 30.01 in    
Wind  
Wind Speed 23 mph (NNE)    
Max Wind Speed 36 mph    
Max Gust Speed 40 mph    
Visibility 10 miles    
Events      
Averages and records for this station are not official NWS values.
T = Trace of Precipitation, MM = Missing Value Source: NWS Daily Summary

Daily Weather History Graph

Daily Weather History Graph

Search for Another Location

Airport or City:

Trip Planner

Search our weather history database for the weather conditions in past years. The results will help you decide how hot, cold, wet, or windy it might be!

Date:

Astronomy

Apr. 10, 2013 Rise Set
Actual Time 6:27 AM MDT 7:20 PM MDT
Civil Twilight 6:01 AM MDT 7:46 PM MDT
Nautical Twilight 5:31 AM MDT 8:16 PM MDT
Astronomical Twilight 4:59 AM MDT 8:47 PM MDT
Moon 6:25 AM MDT (4/10) 7:55 PM MDT (4/10)
Length of Visible Light 13h 44m
Length of Day
12h 53m
New Moon, 0% of the Moon is Illuminated
Apr 10
New Moon
Apr 18
First Quarter
Apr 25
Full
May 2
Last Quarter
May 9
New

Hourly Weather History & Observations

Time (MDT) Temp. Windchill Dew Point Humidity Pressure Visibility Wind Dir Wind Speed Gust Speed Precip Events Conditions
12:15 AM 28.4 °F 12.0 °F 8.6 °F 43% 29.98 in 7.0 mi North 33.4 mph 39.1 mph N/A   Overcast
12:35 AM 28.4 °F 12.7 °F 6.8 °F 40% 29.99 in 6.0 mi NNE 29.9 mph 39.1 mph N/A   Overcast
12:55 AM 26.6 °F 10.0 °F 6.8 °F 43% 29.98 in 9.0 mi NNE 31.1 mph 36.8 mph N/A   Mostly Cloudy
1:15 AM 26.6 °F 11.4 °F 6.8 °F 43% 29.98 in 6.0 mi North 25.3 mph 38.0 mph N/A   Scattered Clouds
1:35 AM 26.6 °F 9.8 °F 6.8 °F 43% 29.98 in 7.0 mi North 32.2 mph 38.0 mph N/A   Mostly Cloudy
1:55 AM 26.6 °F 9.1 °F 6.8 °F 43% 29.98 in 8.0 mi NNE 35.7 mph 39.1 mph N/A   Overcast
2:15 AM 26.6 °F 10.6 °F 6.8 °F 43% 30.01 in 8.0 mi North 28.8 mph 39.1 mph N/A   Overcast
2:35 AM 26.6 °F 9.6 °F 5.0 °F 40% 29.99 in 7.0 mi NNE 33.4 mph 39.1 mph N/A   Overcast
2:55 AM 24.8 °F 7.9 °F 3.2 °F 40% 30.02 in 9.0 mi NNE 29.9 mph 36.8 mph N/A   Overcast
3:15 AM 24.8 °F 7.1 °F 5.0 °F 43% 30.02 in 10.0 mi NNE 33.4 mph 40.3 mph N/A   Overcast
3:35 AM 24.8 °F 9.3 °F 5.0 °F 43% 30.02 in 10.0 mi NNE 24.2 mph 29.9 mph N/A   Overcast
3:55 AM 24.8 °F 7.3 °F 3.2 °F 40% 30.00 in 9.0 mi NNE 32.2 mph 39.1 mph N/A   Mostly Cloudy
4:15 AM 24.8 °F 8.4 °F 3.2 °F 40% 30.00 in 8.0 mi North 27.6 mph 38.0 mph N/A   Scattered Clouds
4:35 AM 24.8 °F 8.1 °F 3.2 °F 40% 29.99 in 9.0 mi NNE 28.8 mph 35.7 mph N/A   Clear
4:55 AM 24.8 °F 7.1 °F 3.2 °F 40% 29.99 in 10.0 mi NNE 33.4 mph 38.0 mph N/A   Clear
5:15 AM 24.8 °F 7.9 °F 3.2 °F 40% 30.02 in 10.0 mi North 29.9 mph 35.7 mph N/A   Mostly Cloudy
5:35 AM 24.8 °F 8.1 °F 3.2 °F 40% 30.03 in 10.0 mi NNE 28.8 mph 34.5 mph N/A   Overcast
5:55 AM 24.8 °F 9.0 °F 1.4 °F 36% 30.04 in 10.0 mi NNE 25.3 mph 38.0 mph N/A   Overcast
6:15 AM 23.0 °F 6.0 °F 3.2 °F 43% 30.05 in 10.0 mi NNE 27.6 mph 38.0 mph N/A   Overcast
6:35 AM 23.0 °F 6.0 °F 3.2 °F 43% 30.03 in 10.0 mi NNE 27.6 mph 34.5 mph N/A   Overcast
6:55 AM 21.2 °F 5.2 °F 3.2 °F 46% 30.04 in 10.0 mi NNE 21.9 mph 35.7 mph N/A   Overcast
7:15 AM 21.2 °F 3.3 °F 3.2 °F 46% 30.07 in 10.0 mi NNE 28.8 mph 33.4 mph N/A   Mostly Cloudy
7:35 AM 23.0 °F 6.3 °F 3.2 °F 43% 30.06 in 10.0 mi NNE 26.5 mph 32.2 mph N/A   Mostly Cloudy
7:55 AM 23.0 °F 5.4 °F 3.2 °F 43% 30.07 in 10.0 mi NNE 29.9 mph 35.7 mph N/A   Mostly Cloudy
8:15 AM 24.8 °F 8.7 °F 3.2 °F 40% 30.07 in 10.0 mi North 26.5 mph 32.2 mph N/A   Partly Cloudy
8:55 AM 28.4 °F 12.7 °F 6.8 °F 40% 30.07 in 10.0 mi NNE 29.9 mph 33.4 mph N/A   Clear
9:15 AM 30.2 °F 15.7 °F 5.0 °F 34% 30.08 in 9.0 mi North 27.6 mph 35.7 mph N/A   Clear
9:35 AM 32.0 °F 18.6 °F 6.8 °F 35% 30.08 in 10.0 mi NNE 25.3 mph 32.2 mph N/A   Scattered Clouds
9:55 AM 33.8 °F 21.0 °F 6.8 °F 32% 30.08 in 10.0 mi North 25.3 mph 31.1 mph N/A   Partly Cloudy
10:15 AM 33.8 °F 21.0 °F 6.8 °F 32% 30.08 in 10.0 mi North 25.3 mph 28.8 mph N/A   Clear
10:35 AM 35.6 °F 23.7 °F 6.8 °F 30% 30.08 in 10.0 mi NNE 24.2 mph 29.9 mph N/A   Partly Cloudy
11:15 AM 37.4 °F 26.9 °F 6.8 °F 28% 30.07 in 10.0 mi NNE 20.7 mph 27.6 mph N/A   Clear
11:35 AM 37.4 °F 26.1 °F 8.6 °F 30% 30.05 in 10.0 mi NNE 24.2 mph 28.8 mph N/A   Clear
12:15 PM 39.2 °F 29.8 °F 8.6 °F 28% 30.05 in 10.0 mi NNE 18.4 mph 24.2 mph N/A   Clear
12:35 PM 39.2 °F 29.8 °F 8.6 °F 28% 30.04 in 10.0 mi NNE 18.4 mph 25.3 mph N/A   Clear
12:55 PM 39.2 °F 31.6 °F 10.4 °F 31% 30.04 in 10.0 mi NNE 12.7 mph 23.0 mph N/A   Clear
1:15 PM 39.2 °F 31.6 °F 10.4 °F 31% 30.02 in 10.0 mi North 12.7 mph 17.3 mph N/A   Clear
1:35 PM 41.0 °F 34.3 °F 12.2 °F 31% 30.01 in 10.0 mi North 11.5 mph 18.4 mph N/A   Clear
1:55 PM 42.8 °F 36.2 °F 12.2 °F 29% 30.00 in 10.0 mi NNE 12.7 mph 18.4 mph N/A   Clear
2:15 PM 42.8 °F 35.8 °F 12.2 °F 29% 29.99 in 10.0 mi North 13.8 mph 21.9 mph N/A   Clear
2:35 PM 42.8 °F 38.6 °F 12.2 °F 29% 29.99 in 10.0 mi NE 6.9 mph 20.7 mph N/A   Clear
2:55 PM 42.8 °F 38.0 °F 14.0 °F 31% 29.98 in 10.0 mi NW 8.1 mph - N/A   Clear
3:15 PM 44.6 °F 40.2 °F 14.0 °F 29% 29.98 in 10.0 mi North 8.1 mph - N/A   Clear
3:35 PM 44.6 °F 39.7 °F 14.0 °F 29% 29.96 in 10.0 mi NW 9.2 mph - N/A   Clear
3:55 PM 46.4 °F 41.9 °F 15.8 °F 29% 29.96 in 10.0 mi NNE 9.2 mph - N/A   Clear
4:15 PM 46.4 °F 42.9 °F 15.8 °F 29% 29.95 in 10.0 mi North 6.9 mph - N/A   Clear
4:35 PM 46.4 °F 42.9 °F 15.8 °F 29% 29.95 in 10.0 mi North 6.9 mph 16.1 mph N/A   Clear
4:55 PM 46.4 °F 45.2 °F 15.8 °F 29% 29.95 in 10.0 mi North 3.5 mph - N/A   Clear
5:15 PM 46.4 °F 44.3 °F 15.8 °F 29% 29.95 in 10.0 mi North 4.6 mph - N/A   Clear
5:35 PM 46.4 °F 41.1 °F 15.8 °F 29% 29.95 in 10.0 mi NNW 11.5 mph - N/A   Clear
5:55 PM 46.4 °F 42.9 °F 14.0 °F 27% 29.95 in 10.0 mi North 6.9 mph - N/A   Clear
6:15 PM 44.6 °F 42.2 °F 14.0 °F 29% 29.96 in 10.0 mi NE 4.6 mph - N/A   Clear
6:35 PM 44.6 °F 40.7 °F 14.0 °F 29% 29.96 in 10.0 mi ENE 6.9 mph - N/A   Clear
6:55 PM 44.6 °F 42.2 °F 12.2 °F 27% 29.96 in 10.0 mi ENE 4.6 mph - N/A   Clear
7:15 PM 42.8 °F 38.6 °F 12.2 °F 29% 29.97 in 10.0 mi ENE 6.9 mph - N/A   Clear
7:35 PM 41.0 °F 35.8 °F 12.2 °F 31% 29.98 in 10.0 mi NE 8.1 mph - N/A   Clear
7:55 PM 39.2 °F 33.6 °F 10.4 °F 31% 29.98 in 10.0 mi NE 8.1 mph - N/A   Clear
8:15 PM 39.2 °F 32.5 °F 10.4 °F 31% 29.98 in 10.0 mi NE 10.4 mph - N/A   Clear
8:35 PM 37.4 °F 30.3 °F 10.4 °F 33% 29.98 in 10.0 mi NE 10.4 mph - N/A   Clear
8:55 PM 35.6 °F 28.0 °F 10.4 °F 35% 29.99 in 10.0 mi NE 10.4 mph - N/A   Clear
9:15 PM 35.6 °F 28.6 °F 10.4 °F 35% 29.99 in 10.0 mi ENE 9.2 mph - N/A   Clear
9:35 PM 33.8 °F 27.7 °F 10.4 °F 38% 30.01 in 10.0 mi ENE 6.9 mph - N/A   Clear
9:55 PM 32.0 °F 24.8 °F 10.4 °F 41% 30.00 in 10.0 mi ENE 8.1 mph - N/A   Clear
10:15 PM 30.2 °F 23.4 °F 10.4 °F 44% 30.00 in 10.0 mi East 6.9 mph - N/A   Clear
10:35 PM 30.2 °F 23.4 °F 12.2 °F 47% 30.00 in 10.0 mi East 6.9 mph - N/A   Scattered Clouds
10:55 PM 30.2 °F 23.4 °F 10.4 °F 44% 30.00 in 10.0 mi ENE 6.9 mph - N/A   Partly Cloudy
11:15 PM 30.2 °F 24.3 °F 10.4 °F 44% 29.99 in 10.0 mi ENE 5.8 mph - N/A   Clear
11:35 PM 30.2 °F 24.3 °F 10.4 °F 44% 29.99 in 10.0 mi ENE 5.8 mph - N/A   Clear
11:55 PM 30.2 °F 25.4 °F 12.2 °F 47% 29.99 in 10.0 mi NNE 4.6 mph - N/A   Scattered Clouds